User: anonymous   Login
Location: Canazei
(46.4667°N, 11.7667°E)
Time: 05:12:07
(UTC+00:00)
Language:

Cosmos 1680 Rocket - Orbit

View from above orbital plane
View from above orbital plane
View from above satellite
View from above satellite

Ground track
Ground track

The orbit data is extracted from the following two-line orbital elements,

1 16012U 85079B   21171.53033659  .00000067  00000-0  31755-4 0  9993
2 16012  74.0599 329.1941 0015552 229.6269 130.3527 14.36373908874036
Epoch (UTC): 20 June 2021 12:43:41
Eccentricity: 0.0015552
inclination: 74.0599°
perigee height: 759 km
apogee height: 781 km
right ascension of ascending node: 329.1941°
argument of perigee: 229.6269°
revolutions per day: 14.36373908
mean anomaly at epoch: 130.3527°
orbit number at epoch: 87403

The dashed part of the orbit path shows where the satellite is in the earth's shadow,  

DLR